Location: Brunembert
(50.7122°N, 1.8935°E)
Time: 09:37:14
(UTC+00:00)

Cosmos 1633 Rocket - Pass Details

Date: 22 April 2021
Orbit: 607 x 623 km, 82.5° (Epoch: 16 May)

Event Time Altitude Azimuth Distance (km) Brightness Sun altitude
Rises 23:33:38 0° 343° (NNW) 2,882 7.7 -26.6°
Reaches altitude 10° 23:35:59 10° 335° (NNW) 1,973 6.5 -26.7°
Enters shadow 23:39:18 34° 290° (WNW) 1,016 4.3 -26.7°
